CW6780 Victoria BC CA current weather conditions

sailwx.info

Wind from 041 at 0 knots gusting 5

Air temperature 6.7° C
Dewpoint 6.1° C

Last reported at 2019-Dec-09 11:57 UTC.
Time now 2019-Dec-09 12:21 UTC

Location: N 48°29' W 123°19'.
View on Google Maps.

See reports from other nearby stations

  
Tides and Currents Weather Stations Pressure Air Temp Water Temp Dewpoint Dewpoint Depression Visibility Wind Speed Wind Dir Waves Ship Positions
date/time (UTC)wind fromknots sea level pressurealtimeterstation pressurevisibilityair tempwater tempwave heightnotes
2019-Dec-09 11:57 041 0 gusting 5 6.7
2019-Dec-09 11:47 001 0 gusting 2 6.7
2019-Dec-09 11:37 001 0 gusting 3 6.7
2019-Dec-09 11:07 002 0 gusting 3 6.7
2019-Dec-09 10:27 060 1 gusting 5 6.1
2019-Dec-09 10:17 048 1 gusting 5 6.1
2019-Dec-09 10:07 050 1 gusting 4 6.1
2019-Dec-09 09:57 050 1 gusting 5 6.1
2019-Dec-09 09:47 051 2 gusting 5 6.1
2019-Dec-09 09:37 053 1 gusting 4 6.1
2019-Dec-09 09:07 063 1 gusting 4 6.1
2019-Dec-09 08:07 056 6.7
2019-Dec-09 07:57 056 0 gusting 3 6.7
2019-Dec-09 07:17 050 1 gusting 5 6.7
2019-Dec-09 06:57 056 0 gusting 4 6.7
2019-Dec-09 06:37 051 2 gusting 6 7.2
2019-Dec-09 06:27 054 2 gusting 6 7.2
2019-Dec-09 06:17 043 1 gusting 5 6.7
2019-Dec-09 05:57 066 1 gusting 4 6.7
2019-Dec-09 05:47 047 2 gusting 5 6.7
2019-Dec-09 05:37 054 2 gusting 8 6.7
2019-Dec-09 05:17 069 1 gusting 3 6.7
2019-Dec-09 05:07 082 0 gusting 3 6.7
2019-Dec-09 04:47 082 0 gusting 3 7.2
2019-Dec-09 04:37 082 6.7
2019-Dec-09 04:27 082 6.7
2019-Dec-09 03:57 082 1 gusting 4 7.2
2019-Dec-09 03:47 082 1 gusting 4 7.2
2019-Dec-09 03:17 082 7.2
2019-Dec-09 03:07 082 7.2
2019-Dec-09 02:47 082 0 gusting 3 7.2
2019-Dec-09 02:07 082 7.2
2019-Dec-09 01:47 082 7.8
2019-Dec-09 01:37 082 7.8
2019-Dec-09 01:27 082 0 gusting 3 7.8
2019-Dec-09 00:57 091 7.8
2019-Dec-09 00:47 091 7.8
2019-Dec-09 00:17 091 0 gusting 3 8.3
2019-Dec-08 23:57 091 0 gusting 3 8.3
2019-Dec-08 23:47 071 1 gusting 4 8.3
2019-Dec-08 23:37 067 2 gusting 5 8.3
2019-Dec-08 23:17 061 1 gusting 4 8.9
2019-Dec-08 22:47 050 1 gusting 3 8.9
2019-Dec-08 22:37 053 1 gusting 4 8.9
2019-Dec-08 22:17 051 3 gusting 7 8.3
2019-Dec-08 22:07 041 3 gusting 6 8.9
2019-Dec-08 21:47 052 2 gusting 6 8.9
2019-Dec-08 21:37 077 2 gusting 7 8.9
2019-Dec-08 20:47 062 1 gusting 5 8.9
2019-Dec-08 20:27 043 1 gusting 5 8.9
2019-Dec-08 20:07 047 1 gusting 5 8.9
2019-Dec-08 19:47 050 0 gusting 5 8.9
2019-Dec-08 19:37 049 0 gusting 4 8.9
2019-Dec-08 19:27 058 0 gusting 5 8.3
2019-Dec-08 19:17 037 8.3
2019-Dec-08 18:57 035 0 gusting 4 8.3
2019-Dec-08 18:27 039 8.3
2019-Dec-08 18:07 039 8.3
2019-Dec-08 17:57 039 8.3
2019-Dec-08 17:37 039 8.3
2019-Dec-08 17:27 039 0 gusting 2 8.3
2019-Dec-08 17:17 039 0 gusting 3 8.3
2019-Dec-08 17:07 039 8.3
2019-Dec-08 16:47 039 7.8
2019-Dec-08 16:27 039 7.8
2019-Dec-08 15:07 039 7.8
2019-Dec-08 14:37 039 7.8
2019-Dec-08 14:27 039 7.8
2019-Dec-08 14:17 039 7.8
2019-Dec-08 14:07 039 7.8
2019-Dec-08 13:57 039 7.8
2019-Dec-08 13:47 039 7.8
2019-Dec-08 13:37 039 7.8
2019-Dec-08 13:27 039 7.8
2019-Dec-08 13:17 039 8.3
2019-Dec-08 13:07 039 8.3
2019-Dec-08 12:57 039 0 gusting 3 8.3
2019-Dec-08 12:47 039 1 gusting 3 8.3
2019-Dec-08 12:37 039 1 gusting 4 8.3
2019-Dec-08 12:17 025 8.3
2019-Dec-08 11:47 025 8.3
2019-Dec-08 11:07 025 8.3
2019-Dec-08 10:57 025 8.3
2019-Dec-08 10:37 025 8.3
2019-Dec-08 10:27 025 8.3
2019-Dec-08 10:17 025 8.3
2019-Dec-08 09:47 025 8.3
2019-Dec-08 09:27 025 8.3
2019-Dec-08 08:47 268 0 gusting 3 8.3
2019-Dec-08 08:37 265 0 gusting 3 8.3
2019-Dec-08 08:17 153 8.3
2019-Dec-08 08:07 153 8.3
2019-Dec-08 07:57 153 8.3
2019-Dec-08 07:37 153 8.3
2019-Dec-08 07:17 156 8.3
2019-Dec-08 07:07 156 8.3
2019-Dec-08 06:57 156 8.3
2019-Dec-08 06:47 156 8.3
2019-Dec-08 06:37 156 8.3
2019-Dec-08 06:17 156 0 gusting 2 8.3
2019-Dec-08 06:07 156 8.3
2019-Dec-08 05:57 156 8.3
2019-Dec-08 05:27 156 8.3
2019-Dec-08 05:07 168 8.3
2019-Dec-08 04:57 168 8.3
2019-Dec-08 04:37 168 8.3
2019-Dec-08 04:27 168 8.3
2019-Dec-08 04:17 168 8.3
2019-Dec-08 04:07 168 8.3
2019-Dec-08 03:57 168 8.3
2019-Dec-08 03:47 168 8.3
2019-Dec-08 03:27 168 8.3
2019-Dec-08 03:17 168 8.3
2019-Dec-08 02:57 168 8.3
2019-Dec-08 02:47 168 8.3
2019-Dec-08 02:37 168 8.3
2019-Dec-08 02:27 168 8.3
2019-Dec-08 01:57 168 8.3
2019-Dec-08 01:27 168 8.3
2019-Dec-08 01:17 168 8.3
2019-Dec-08 01:07 168 8.3
2019-Dec-08 00:47 168 8.3
2019-Dec-08 00:27 168 8.3
2019-Dec-08 00:07 168 8.9
2019-Dec-07 23:57 168 8.9
2019-Dec-07 23:47 168 8.9
2019-Dec-07 23:37 168 8.9
2019-Dec-07 23:27 168 8.9
2019-Dec-07 23:17 168 8.9
2019-Dec-07 22:37 183 8.9
2019-Dec-07 22:27 185 0 gusting 3 8.9
2019-Dec-07 22:07 172 1 gusting 5 8.9
2019-Dec-07 21:57 168 0 gusting 4 8.9
2019-Dec-07 21:37 168 8.9
2019-Dec-07 21:07 128 8.9
2019-Dec-07 20:57 128 8.9
2019-Dec-07 20:47 128 8.9
2019-Dec-07 20:27 128 0 gusting 3 8.9
2019-Dec-07 19:47 118 8.9
2019-Dec-07 19:37 118 8.9
2019-Dec-07 19:27 118 8.9
2019-Dec-07 19:07 118 0 gusting 3 8.9
2019-Dec-07 18:37 041 8.9
2019-Dec-07 18:17 041 8.9
2019-Dec-07 18:07 041 8.3
2019-Dec-07 17:57 041 8.3
2019-Dec-07 17:47 041 8.3
2019-Dec-07 17:37 041 8.3
2019-Dec-07 17:27 041 8.3
2019-Dec-07 17:07 041 8.3
2019-Dec-07 16:47 041 7.8
2019-Dec-07 16:37 041 7.8
2019-Dec-07 16:27 041 7.8
2019-Dec-07 16:07 041 7.8
2019-Dec-07 15:57 041 7.8
2019-Dec-07 15:47 041 7.8
2019-Dec-07 15:27 041 7.8
2019-Dec-07 15:17 041 7.8
2019-Dec-07 15:07 041 7.8
2019-Dec-07 14:57 041 7.8
2019-Dec-07 14:17 041 7.8
2019-Dec-07 13:47 041 7.8
2019-Dec-07 13:37 041 7.8
2019-Dec-07 13:27 041 7.8
2019-Dec-07 13:17 041 7.8
2019-Dec-07 13:07 041 7.8
2019-Dec-07 12:57 041 7.8
2019-Dec-07 12:47 041 7.8
2019-Dec-07 12:17 041 7.8